Theta_e
318 319 319 319 320 321 321 321 320 321 321 321 321 321 319 319 318 309 302 309 314 321 321 312 309 309 311 307 307 308 300 296 295 296 293 297 298 305 307 306 307 311 312 316 319
317 318 318 319 320 320 321 321 321 321 321 321 321 320 319 317 309 304 316 321 318 320 309 305 304 308 303 304 303 301 299 293 294 294 293 294 295 297 299 303 305 307 312 314 313
316 317 318 319 319 320 321 322 321 320 321 319 318 318 315 311 304 302 320 321 322 316 308 306 306 307 301 301 298 298 294 295 294 296 295 295 294 296 295 296 299 302 308 310 310
315 316 317 318 319 320 321 321 320 319 317 316 315 313 313 307 293 305 319 322 320 309 307 305 304 302 298 296 300 293 296 297 297 296 295 294 295 293 295 296 304 306 308 308 307
315 315 316 317 317 319 320 320 319 318 317 316 313 313 308 302 298 307 318 315 309 308 304 303 301 300 295 296 298 294 294 296 296 295 293 294 292 291 292 297 303 305 307 305 305
315 315 315 316 317 318 319 319 318 317 317 316 316 316 308 294 306 307 309 308 307 306 304 304 300 301 297 295 295 296 295 294 295 295 294 292 291 290 292 299 303 305 304 304 303
314 314 314 315 315 316 317 318 316 316 315 314 313 308 300 296 306 306 308 308 307 307 304 305 304 302 299 294 298 296 293 294 293 294 293 293 291 290 293 300 300 302 302 303 301
313 314 314 315 315 315 316 315 314 315 313 313 314 311 297 306 306 304 306 308 309 308 306 307 308 302 299 298 297 295 294 289 293 294 292 291 286 294 294 294 296 299 301 301 301
313 313 313 315 314 314 314 314 314 314 316 314 311 309 296 309 301 303 304 302 306 308 306 307 306 301 301 295 293 294 287 288 290 293 291 291 287 293 294 294 292 295 298 299 299
313 313 313 314 314 314 311 313 314 313 308 305 304 303 299 295 300 301 303 303 304 304 307 303 302 294 290 290 283 283 283 287 286 288 287 285 286 290 293 292 292 293 295 298 298
312 313 312 313 313 315 316 312 306 301 300 294 295 296 296 299 303 299 301 302 305 300 293 297 288 282 285 287 288 287 286 285 289 287 285 285 286 289 291 291 288 290 291 294 297
312 313 312 312 312 316 313 302 300 303 292 298 298 297 298 299 295 296 301 298 297 291 296 291 283 287 289 289 288 287 284 284 286 287 285 284 284 288 287 286 287 288 289 292 296
312 312 311 312 312 311 304 301 307 306 297 294 297 295 295 298 292 292 296 296 292 289 288 286 286 289 288 287 286 285 281 280 280 285 286 284 284 287 286 287 288 289 290 291 292
311 311 310 312 310 308 301 305 308 305 289 291 294 295 298 298 292 297 297 295 292 284 288 286 288 287 286 285 285 281 285 284 282 280 278 283 277 287 285 285 285 287 287 288 290
310 309 310 314 307 302 302 305 308 305 282 292 292 300 298 293 292 294 296 296 288 286 289 284 285 283 283 283 285 284 285 282 281 278 278 279 275 286 284 284 286 285 286 287 288
310 307 310 308 307 303 307 307 304 290 280 283 294 291 292 293 293 295 295 295 293 290 289 284 288 285 283 285 285 286 283 282 280 280 279 273 275 280 284 284 285 286 286 287 287
309 305 306 305 301 306 308 306 288 282 289 284 284 290 287 286 289 290 289 285 283 283 282 286 283 285 285 282 285 284 282 279 277 278 278 269 274 281 286 286 285 285 285 285 285
307 307 305 303 306 308 307 293 282 282 283 288 288 288 284 285 287 289 288 284 286 284 282 278 278 281 284 281 279 279 278 277 269 274 275 269 273 283 285 285 286 286 285 286 285
305 311 306 302 305 305 299 284 284 285 288 286 288 285 285 286 283 287 283 283 283 283 280 279 281 282 282 283 281 280 280 277 273 266 269 277 283 288 283 284 285 284 285 284 284
310 309 303 303 304 305 287 285 283 289 289 288 282 283 280 281 283 284 282 283 283 284 282 279 277 281 281 282 281 281 280 278 278 271 269 277 276 280 282 280 281 284 283 282 281
311 305 305 303 304 292 285 283 283 290 290 286 283 281 282 281 281 281 280 283 285 284 283 281 279 281 279 277 279 277 278 278 278 277 272 272 278 286 280 280 277 278 281 275 275
311 291 307 303 289 285 284 284 289 288 291 289 287 285 282 281 281 280 280 283 286 284 280 281 280 275 281 281 281 279 280 281 276 274 275 274 276 281 279 278 277 278 280 276 274
303 304 310 307 287 285 284 284 287 286 285 284 283 286 285 280 280 281 281 285 286 284 281 282 279 274 283 279 279 277 279 280 276 277 272 272 278 278 277 276 277 275 273 273 273
307 290 294 297 296 290 285 285 284 288 287 286 285 285 283 279 281 280 282 284 284 284 287 285 281 278 280 282 279 277 278 279 276 273 275 277 281 286 286 281 280 274 271 271 271
302 291 291 287 290 288 288 286 283 283 287 287 283 283 283 278 280 276 282 282 284 287 283 283 274 277 278 279 277 279 278 277 275 278 273 282 278 284 286 284 277 271 271 273 271
305 301 292 288 289 288 288 285 284 284 286 283 282 284 284 280 283 281 282 282 283 283 282 281 274 272 273 279 278 275 278 278 278 279 277 279 278 285 281 272 272 273 273 274 271
299 298 299 292 290 289 292 287 286 288 287 288 287 284 283 285 286 285 285 284 282 282 281 277 275 271 272 274 274 275 277 277 276 276 276 274 283 276 276 277 274 273 274 273 270
Wind_Speed
15 13 13 12 12 11 10 9 9 8 7 8 7 8 9 10 10 9 12 9 9 16 12 8 4 4 2 4 5 2 2 4 5 6 4 3 1 3 3 5 3 4 5 7 10
16 16 13 11 11 10 10 10 8 7 7 6 6 7 8 8 5 16 7 13 12 10 5 8 6 5 5 4 5 7 4 6 6 6 5 4 4 3 2 5 4 4 6 6 7
17 16 15 13 11 11 10 9 9 7 6 4 3 4 7 5 1 9 19 17 11 8 4 3 3 3 5 5 7 7 4 5 5 4 6 3 2 0 4 6 5 6 11 9 7
18 15 15 14 13 11 10 9 8 8 6 3 1 3 3 4 4 11 17 15 8 4 5 3 3 4 5 6 2 6 5 4 2 2 4 2 5 4 7 1 5 5 4 7 5
19 17 15 13 13 10 9 8 8 7 5 2 5 7 5 8 7 14 12 11 3 4 5 4 7 4 5 4 3 6 3 4 2 3 3 6 6 4 8 4 4 2 1 5 5
19 18 15 13 13 11 9 9 8 8 6 6 7 7 2 13 6 13 8 9 11 7 11 7 5 9 8 4 5 4 6 4 1 2 1 4 5 2 6 8 7 7 7 8 6
18 18 17 15 13 11 9 8 6 8 9 9 10 2 15 8 5 11 10 8 7 9 6 4 4 1 7 4 2 4 2 4 1 3 2 5 7 12 9 8 8 9 8 6 6
19 18 17 16 14 11 8 8 5 9 6 6 9 3 7 1 5 16 14 6 8 6 4 5 4 6 4 6 4 2 1 3 1 5 3 2 10 8 11 9 9 9 9 8 7
18 17 16 15 14 11 8 5 2 5 7 7 4 2 5 1 7 9 8 6 9 3 3 3 3 4 2 1 2 1 3 5 2 1 3 6 10 4 7 8 9 10 9 9 9
17 16 15 15 13 10 7 7 8 1 7 2 6 3 7 8 6 9 6 6 3 7 0 7 6 6 6 7 2 4 4 6 7 2 3 9 23 17 14 15 11 9 8 10 8
18 17 15 13 13 11 5 2 2 8 12 6 4 5 3 9 7 9 6 7 3 7 6 6 10 5 5 5 5 6 7 9 7 4 7 8 19 19 12 9 8 8 8 7 10
19 17 16 13 9 10 3 5 4 1 8 5 3 4 1 4 5 18 15 6 8 5 1 7 5 4 5 5 6 6 7 7 6 2 6 9 23 17 2 3 4 4 7 7 6
20 18 16 14 4 5 7 5 4 5 3 4 2 5 4 6 5 11 10 4 6 8 9 7 3 3 3 4 7 1 2 4 6 12 6 10 10 3 0 2 4 7 7 7 2
20 19 17 13 5 2 4 4 4 3 8 13 8 5 2 2 4 3 4 2 6 3 4 5 2 2 5 2 4 4 6 6 8 6 4 6 7 7 3 2 1 2 2 5 5
18 18 14 14 5 4 2 3 3 2 7 9 7 3 5 6 5 4 3 3 5 1 1 0 4 4 2 3 3 3 5 4 2 3 6 3 3 10 1 2 4 4 3 4 5
15 16 13 3 5 2 3 3 1 10 3 6 6 8 5 8 4 7 5 7 2 2 6 3 1 4 5 4 3 9 4 2 1 2 3 3 4 9 2 1 3 4 6 6 8
12 9 8 3 2 3 3 2 9 8 3 7 5 7 3 8 8 8 5 9 6 6 7 2 3 3 2 3 3 3 5 5 7 5 6 3 2 13 6 5 4 6 7 8 7
8 9 5 5 3 4 2 8 10 0 3 1 2 4 5 7 3 6 2 3 8 5 1 4 6 2 5 3 1 3 2 4 4 4 6 1 8 8 3 5 5 6 6 5 9
7 1 3 4 4 3 5 9 5 4 2 3 2 5 5 3 1 5 6 4 5 7 4 5 5 2 3 3 1 2 1 1 0 2 3 5 7 8 4 6 7 6 6 9 9
2 1 3 5 5 1 10 4 2 2 3 3 2 1 1 5 3 5 5 2 2 3 1 1 5 1 2 2 2 1 1 3 2 7 8 6 5 8 3 1 4 6 5 6 6
2 3 1 2 2 8 7 2 2 1 3 5 2 2 2 2 2 2 1 1 2 3 1 2 3 4 3 3 4 1 1 3 1 3 4 7 8 5 4 5 5 2 2 2 2
2 6 2 2 8 4 4 2 3 2 1 1 3 2 1 0 2 0 2 1 3 1 2 1 1 5 7 3 3 1 2 5 5 6 5 3 14 2 5 7 5 3 2 4 2
3 2 1 2 6 3 1 1 1 1 2 1 2 2 3 1 3 1 2 2 2 1 1 2 2 5 6 1 1 3 5 4 1 1 7 3 11 1 2 2 3 2 1 3 2
2 5 6 7 1 6 3 1 1 1 2 2 3 1 3 1 2 3 2 2 2 1 1 1 2 7 7 7 1 4 6 6 6 3 4 17 25 21 13 4 3 2 3 4 2
5 1 4 3 4 4 2 5 1 2 2 3 1 4 5 2 3 3 3 2 2 4 2 3 4 3 7 13 6 16 15 9 13 15 8 25 11 25 16 14 5 4 4 5 5
2 2 1 1 1 1 2 4 6 3 5 3 3 5 6 5 5 4 3 4 4 4 4 1 3 3 9 4 4 11 10 10 17 19 16 27 31 21 8 2 2 5 4 4 4
0 1 1 1 0 2 3 4 5 5 4 2 4 2 4 5 3 3 4 4 3 4 5 4 3 1 8 4 10 9 12 9 7 7 8 8 12 3 2 4 4 4 5 5 3
Wind_Direction
356 357 359 354 355 351 351 346 342 337 327 328 338 324 325 335 309 51 40 322 309 316 317 271 277 334 33 56 12 304 75 105 17 29 104 176 229 85 279 108 53 12 54 105 141
1 1 2 360 352 347 349 343 339 335 334 335 332 312 318 335 91 62 357 347 336 329 312 353 44 5 51 35 8 37 50 38 4 1 68 65 330 52 245 157 159 130 119 127 162
3 2 0 3 359 352 352 348 354 356 356 353 326 286 280 305 106 26 357 342 339 311 284 307 285 52 60 51 355 3 62 130 45 355 351 37 211 5 270 237 209 192 163 172 186
1 7 359 5 359 3 359 360 7 25 30 31 346 277 326 262 69 357 346 327 323 296 281 278 298 62 66 53 25 101 39 37 353 349 310 339 339 261 225 296 41 32 84 147 205
356 3 358 359 360 3 7 8 28 38 42 8 287 296 286 66 32 340 341 343 333 291 10 15 54 67 94 94 77 88 152 86 94 40 12 328 267 285 264 194 128 136 116 206 193
356 353 356 356 355 359 5 10 16 19 5 350 307 241 87 77 316 352 345 18 12 48 30 32 79 106 88 54 43 103 97 112 65 48 60 320 283 58 254 149 171 173 215 224 190
359 355 351 350 355 349 341 349 4 22 3 358 354 34 62 51 352 356 346 41 34 13 62 39 308 336 134 107 45 166 88 184 127 7 341 310 277 228 213 151 203 194 218 203 189
355 357 353 348 350 349 339 13 60 31 23 324 325 20 72 187 332 11 4 41 26 49 62 8 357 75 61 140 166 213 282 299 76 343 159 4 273 339 144 161 217 227 198 209 205
355 353 356 353 353 350 338 355 328 319 334 305 345 1 43 52 13 350 28 352 302 59 93 237 54 97 191 268 123 42 296 340 230 138 299 211 273 201 173 204 223 225 208 189 196
353 353 355 355 351 352 339 316 342 24 330 232 30 58 35 333 325 314 343 323 341 312 337 7 46 62 21 13 107 328 328 323 301 87 320 273 265 268 252 220 219 225 240 192 184
352 350 351 359 337 339 309 261 309 17 33 51 332 94 5 313 274 1 333 311 310 46 41 28 60 45 7 10 312 292 300 294 293 45 339 259 274 283 272 255 212 224 236 234 181
351 348 346 349 332 342 7 57 36 58 81 51 59 95 354 323 340 3 348 59 44 45 60 42 63 9 314 285 297 285 298 301 314 75 344 305 297 288 359 342 0 321 205 240 158
351 347 343 342 323 32 68 55 337 332 98 51 52 40 339 333 41 341 2 13 65 40 32 88 73 292 285 13 353 284 311 355 288 322 258 300 286 160 220 327 3 340 342 347 156
349 348 340 334 61 312 56 4 337 310 77 342 354 44 294 14 48 319 7 342 42 137 46 78 178 303 314 74 340 305 31 338 313 5 306 32 286 315 157 190 172 342 299 294 307
349 347 339 15 133 56 25 326 332 271 62 333 338 305 294 69 294 26 261 330 54 24 187 29 6 3 344 14 3 301 341 302 359 348 359 14 56 271 107 142 96 111 178 223 217
350 347 340 13 67 47 299 295 255 44 47 336 328 357 21 14 37 318 27 50 348 297 51 85 77 23 350 307 236 303 328 229 296 198 4 251 94 285 32 22 122 126 92 50 18
347 356 23 5 59 325 292 219 41 84 358 328 335 355 346 359 4 15 35 32 44 33 7 332 87 107 321 312 200 295 14 340 356 359 231 301 347 247 284 58 69 71 55 41 21
340 338 57 54 341 312 258 51 68 308 269 339 307 290 66 358 358 334 58 70 46 8 343 51 330 23 341 56 270 351 99 128 282 296 279 316 234 258 130 109 90 85 85 63 52
326 190 62 5 334 292 71 53 168 204 270 341 264 56 348 358 30 14 36 45 43 15 58 18 272 115 39 348 25 334 65 40 241 84 41 236 281 300 52 42 69 68 69 65 51
326 299 54 329 337 335 70 126 191 271 301 240 91 109 304 326 8 38 15 5 95 49 293 79 303 184 169 239 94 95 325 35 341 335 308 283 273 246 277 51 341 61 46 40 36
293 23 10 345 340 48 86 176 234 210 331 357 38 28 40 332 335 332 345 137 29 125 15 111 115 287 103 196 164 42 30 39 119 152 221 297 258 225 181 181 169 254 103 103 50
324 36 359 315 49 49 65 154 271 107 148 20 338 65 265 154 279 341 318 72 43 73 78 111 106 272 243 93 44 319 201 187 141 260 228 194 271 3 176 179 170 211 161 103 115
49 309 13 321 73 43 339 353 340 132 113 49 62 25 60 156 358 331 289 76 42 354 44 144 274 328 320 9 135 196 200 178 112 95 214 185 260 224 259 218 249 219 92 84 120
16 22 340 37 18 114 136 319 143 216 187 155 144 145 179 25 233 277 260 165 144 83 66 23 256 203 220 232 118 253 198 204 161 203 229 236 272 276 272 266 337 160 162 155 159
15 332 179 325 353 77 71 160 119 243 281 186 329 232 173 173 226 233 235 183 177 147 173 153 235 304 261 273 261 267 260 209 206 229 222 271 271 274 295 309 284 180 187 160 194
62 125 267 147 292 148 102 222 178 246 149 258 224 183 181 187 212 237 183 206 211 169 190 103 275 19 292 288 278 276 258 230 235 252 254 262 274 280 286 109 255 209 181 188 178
294 133 339 147 216 77 225 186 223 154 199 125 207 154 250 253 336 23 357 9 43 144 179 156 170 63 263 341 335 296 245 181 212 210 174 214 248 167 275 254 239 211 202 186 137